Time,TemperatureF,DewpointF,PressureIn,WindDirection,WindDirectionDegrees,WindSpeedMPH,WindSpeedGustMPH,Humidity,HourlyPrecipIn,Conditions,Clouds,dailyrainin,SoftwareType,DateUTC
2013-01-26 00:12:00,4.9,-1.0,30.36,NW,318,0.0,4.0,75,0.00,,,0.00,weatherlink.com 1.10,2013-01-26 06:12:00,
2013-01-26 00:27:00,4.7,-2.0,30.37,NW,323,0.0,3.0,75,0.00,,,0.00,weatherlink.com 1.10,2013-01-26 06:27:00,
2013-01-26 00:42:00,4.4,-2.0,30.37,WNW,285,0.0,2.0,76,0.00,,,0.00,weatherlink.com 1.10,2013-01-26 06:42:00,
2013-01-26 00:58:00,4.1,-2.0,30.37,NNW,328,0.0,1.0,76,0.00,,,0.00,weatherlink.com 1.10,2013-01-26 06:58:00,
2013-01-26 01:13:00,4.0,-2.0,30.37,NW,321,0.0,2.0,77,0.00,,,0.00,weatherlink.com 1.10,2013-01-26 07:13:00,
2013-01-26 01:27:00,3.9,-2.0,30.37,NNW,335,0.0,2.0,77,0.00,,,0.00,weatherlink.com 1.10,2013-01-26 07:27:00,
2013-01-26 01:42:00,3.8,-2.0,30.37,North,352,0.0,2.0,77,0.00,,,0.00,weatherlink.com 1.10,2013-01-26 07:42:00,
2013-01-26 01:58:00,3.6,-2.0,30.37,North,357,0.0,1.0,78,0.00,,,0.00,weatherlink.com 1.10,2013-01-26 07:58:00,
2013-01-26 02:13:00,3.4,-2.0,30.38,North,354,0.0,1.0,78,0.00,,,0.00,weatherlink.com 1.10,2013-01-26 08:13:00,
2013-01-26 02:28:00,3.3,-2.0,30.38,NNE,32,0.0,1.0,79,0.00,,,0.00,weatherlink.com 1.10,2013-01-26 08:28:00,
2013-01-26 02:43:00,3.2,-2.0,30.38,NW,310,0.0,1.0,79,0.00,,,0.00,weatherlink.com 1.10,2013-01-26 08:43:00,
2013-01-26 02:58:00,2.9,-2.0,30.37,West,267,0.0,1.0,79,0.00,,,0.00,weatherlink.com 1.10,2013-01-26 08:58:00,
2013-01-26 03:13:00,2.2,-3.0,30.37,NNE,27,0.0,1.0,79,0.00,,,0.00,weatherlink.com 1.10,2013-01-26 09:13:00,
2013-01-26 03:28:00,1.5,-4.0,30.37,NNE,29,0.0,0.0,79,0.00,,,0.00,weatherlink.com 1.10,2013-01-26 09:28:00,
2013-01-26 03:43:00,0.5,-4.0,30.37,NNE,29,0.0,0.0,80,0.00,,,0.00,weatherlink.com 1.10,2013-01-26 09:43:00,
2013-01-26 03:58:00,1.1,-3.0,30.36,WNW,298,0.0,1.0,83,0.00,,,0.00,weatherlink.com 1.10,2013-01-26 09:58:00,
2013-01-26 04:14:00,1.0,-3.0,30.36,WNW,298,0.0,0.0,82,0.00,,,0.00,weatherlink.com 1.10,2013-01-26 10:14:00,
2013-01-26 04:28:00,1.0,-3.0,30.36,WNW,300,0.0,0.0,82,0.00,,,0.00,weatherlink.com 1.10,2013-01-26 10:28:00,
2013-01-26 04:44:00,0.1,-4.0,30.36,WNW,300,0.0,0.0,82,0.00,,,0.00,weatherlink.com 1.10,2013-01-26 10:44:00,
2013-01-26 04:58:00,-0.8,-5.0,30.37,WNW,300,0.0,0.0,82,0.00,,,0.00,weatherlink.com 1.10,2013-01-26 10:58:00,
2013-01-26 05:13:00,-1.1,-5.0,30.38,WNW,300,0.0,0.0,84,0.00,,,0.00,weatherlink.com 1.10,2013-01-26 11:13:00,
2013-01-26 05:29:00,-1.4,-5.0,30.38,WNW,300,0.0,0.0,84,0.00,,,0.00,weatherlink.com 1.10,2013-01-26 11:29:00,
2013-01-26 05:44:00,-1.5,-5.0,30.39,WNW,301,0.0,0.0,84,0.00,,,0.00,weatherlink.com 1.10,2013-01-26 11:44:00,
2013-01-26 05:59:00,-1.2,-5.0,30.39,WNW,300,0.0,0.0,85,0.00,,,0.00,weatherlink.com 1.10,2013-01-26 11:59:00,
2013-01-26 06:14:00,-1.6,-5.0,30.40,WNW,300,0.0,0.0,85,0.00,,,0.00,weatherlink.com 1.10,2013-01-26 12:14:00,
2013-01-26 06:29:00,-1.7,-5.0,30.39,WNW,301,0.0,0.0,85,0.00,,,0.00,weatherlink.com 1.10,2013-01-26 12:29:00,
2013-01-26 06:44:00,-1.2,-4.0,30.39,WNW,301,0.0,0.0,86,0.00,,,0.00,weatherlink.com 1.10,2013-01-26 12:44:00,
2013-01-26 06:59:00,-1.8,-5.0,30.40,WNW,300,0.0,0.0,85,0.00,,,0.00,weatherlink.com 1.10,2013-01-26 12:59:00,
2013-01-26 07:14:00,-1.6,-5.0,30.41,WNW,301,0.0,0.0,87,0.00,,,0.00,weatherlink.com 1.10,2013-01-26 13:14:00,
2013-01-26 07:29:00,-1.2,-4.0,30.41,WNW,301,0.0,0.0,87,0.00,,,0.00,weatherlink.com 1.10,2013-01-26 13:29:00,
2013-01-26 07:44:00,-1.4,-4.0,30.40,WNW,300,0.0,0.0,87,0.00,,,0.00,weatherlink.com 1.10,2013-01-26 13:44:00,
2013-01-26 07:59:00,-0.9,-4.0,30.41,WNW,301,0.0,0.0,87,0.00,,,0.00,weatherlink.com 1.10,2013-01-26 13:59:00,
2013-01-26 08:14:00,-0.3,-3.0,30.41,WNW,301,0.0,0.0,87,0.00,,,0.00,weatherlink.com 1.10,2013-01-26 14:14:00,
2013-01-26 08:30:00,1.3,-1.0,30.41,WNW,300,0.0,0.0,88,0.00,,,0.00,weatherlink.com 1.10,2013-01-26 14:30:00,
2013-01-26 08:45:00,2.6,0.0,30.40,NW,321,0.0,0.0,88,0.00,,,0.00,weatherlink.com 1.10,2013-01-26 14:45:00,
2013-01-26 09:00:00,5.6,3.0,30.41,SSE,167,0.0,2.0,88,0.00,,,0.00,weatherlink.com 1.10,2013-01-26 15:00:00,
2013-01-26 09:15:00,7.7,4.0,30.41,ESE,104,2.0,3.0,83,0.00,,,0.00,weatherlink.com 1.10,2013-01-26 15:15:00,
2013-01-26 09:30:00,8.5,4.0,30.41,South,188,0.0,2.0,80,0.00,,,0.00,weatherlink.com 1.10,2013-01-26 15:30:00,
2013-01-26 09:45:00,9.2,4.0,30.41,SW,217,0.0,1.0,78,0.00,,,0.00,weatherlink.com 1.10,2013-01-26 15:45:00,
2013-01-26 10:00:00,10.0,4.0,30.41,ESE,117,0.0,3.0,75,0.00,,,0.00,weatherlink.com 1.10,2013-01-26 16:00:00,
2013-01-26 10:15:00,10.6,4.0,30.40,ESE,111,1.0,3.0,75,0.00,,,0.00,weatherlink.com 1.10,2013-01-26 16:15:00,
2013-01-26 10:30:00,11.4,5.0,30.41,SSE,162,0.0,3.0,74,0.00,,,0.00,weatherlink.com 1.10,2013-01-26 16:30:00,
2013-01-26 10:45:00,12.5,5.0,30.41,ESE,117,1.0,3.0,71,0.00,,,0.00,weatherlink.com 1.10,2013-01-26 16:45:00,
2013-01-26 11:01:00,13.3,5.0,30.40,SSW,198,1.0,5.0,69,0.00,,,0.00,weatherlink.com 1.10,2013-01-26 17:01:00,
2013-01-26 11:16:00,14.6,6.0,30.40,South,172,1.0,2.0,69,0.00,,,0.00,weatherlink.com 1.10,2013-01-26 17:16:00,
2013-01-26 11:30:00,15.7,6.0,30.38,East,94,5.0,5.0,65,0.00,,,0.00,weatherlink.com 1.10,2013-01-26 17:30:00,
2013-01-26 11:45:00,16.0,6.0,30.36,South,180,2.0,6.0,65,0.00,,,0.00,weatherlink.com 1.10,2013-01-26 17:45:00,
2013-01-26 12:01:00,16.6,7.0,30.36,WSW,239,1.0,6.0,65,0.00,,,0.00,weatherlink.com 1.10,2013-01-26 18:01:00,
2013-01-26 12:16:00,17.9,7.0,30.36,SE,128,0.0,5.0,63,0.00,,,0.00,weatherlink.com 1.10,2013-01-26 18:16:00,
2013-01-26 12:31:00,18.7,8.0,30.35,NE,56,2.0,6.0,62,0.00,,,0.00,weatherlink.com 1.10,2013-01-26 18:31:00,
2013-01-26 12:46:00,19.4,7.0,30.35,SSE,152,0.0,5.0,60,0.00,,,0.00,weatherlink.com 1.10,2013-01-26 18:46:00,
2013-01-26 13:01:00,19.3,7.0,30.35,SSE,157,0.0,6.0,59,0.00,,,0.00,weatherlink.com 1.10,2013-01-26 19:01:00,
2013-01-26 13:16:00,20.2,8.0,30.34,East,95,1.0,6.0,59,0.00,,,0.00,weatherlink.com 1.10,2013-01-26 19:16:00,
2013-01-26 13:31:00,20.9,9.0,30.34,East,85,3.0,3.0,61,0.00,,,0.00,weatherlink.com 1.10,2013-01-26 19:31:00,
2013-01-26 13:46:00,20.3,8.0,30.32,SE,130,0.0,6.0,59,0.00,,,0.00,weatherlink.com 1.10,2013-01-26 19:46:00,
2013-01-26 14:01:00,20.4,8.0,30.32,SW,217,1.0,3.0,60,0.00,,,0.00,weatherlink.com 1.10,2013-01-26 20:01:00,
2013-01-26 14:16:00,21.2,9.0,30.30,SE,124,4.0,6.0,60,0.00,,,0.00,weatherlink.com 1.10,2013-01-26 20:16:00,
2013-01-26 14:31:00,22.3,10.0,30.30,SE,124,1.0,3.0,60,0.00,,,0.00,weatherlink.com 1.10,2013-01-26 20:31:00,
2013-01-26 14:46:00,22.1,10.0,30.29,ESE,118,1.0,8.0,59,0.00,,,0.00,weatherlink.com 1.10,2013-01-26 20:46:00,
2013-01-26 15:01:00,22.1,9.0,30.29,South,171,1.0,6.0,57,0.00,,,0.00,weatherlink.com 1.10,2013-01-26 21:01:00,
2013-01-26 15:17:00,22.4,10.0,30.28,SE,144,1.0,4.0,59,0.00,,,0.00,weatherlink.com 1.10,2013-01-26 21:17:00,
2013-01-26 15:32:00,22.8,10.0,30.28,SE,129,1.0,3.0,59,0.00,,,0.00,weatherlink.com 1.10,2013-01-26 21:32:00,
2013-01-26 15:47:00,22.1,10.0,30.28,ENE,70,0.0,6.0,60,0.00,,,0.00,weatherlink.com 1.10,2013-01-26 21:47:00,
2013-01-26 16:02:00,22.3,11.0,30.27,NE,55,1.0,5.0,61,0.00,,,0.00,weatherlink.com 1.10,2013-01-26 22:02:00,
2013-01-26 16:17:00,21.8,11.0,30.27,ESE,103,0.0,3.0,62,0.00,,,0.00,weatherlink.com 1.10,2013-01-26 22:17:00,
2013-01-26 16:32:00,21.5,11.0,30.26,SE,142,3.0,3.0,64,0.00,,,0.00,weatherlink.com 1.10,2013-01-26 22:32:00,
2013-01-26 16:47:00,21.3,11.0,30.26,ESE,114,0.0,5.0,65,0.00,,,0.00,weatherlink.com 1.10,2013-01-26 22:47:00,
2013-01-26 17:02:00,21.1,11.0,30.25,NE,53,0.0,6.0,66,0.00,,,0.00,weatherlink.com 1.10,2013-01-26 23:02:00,
2013-01-26 17:17:00,21.0,11.0,30.24,SE,135,0.0,8.0,65,0.00,,,0.00,weatherlink.com 1.10,2013-01-26 23:17:00,
2013-01-26 17:32:00,20.8,11.0,30.23,WSW,246,4.0,4.0,66,0.00,,,0.00,weatherlink.com 1.10,2013-01-26 23:32:00,
2013-01-26 17:48:00,20.8,11.0,30.23,SSW,193,3.0,6.0,66,0.00,,,0.00,weatherlink.com 1.10,2013-01-26 23:48:00,
2013-01-26 18:02:00,21.0,12.0,30.23,ESE,102,0.0,2.0,67,0.00,,,0.00,weatherlink.com 1.10,2013-01-27 00:02:00,
2013-01-26 18:18:00,21.3,12.0,30.24,SE,129,0.0,5.0,67,0.00,,,0.00,weatherlink.com 1.10,2013-01-27 00:18:00,
2013-01-26 18:34:00,21.4,12.0,30.24,East,79,2.0,5.0,67,0.00,,,0.00,weatherlink.com 1.10,2013-01-27 00:34:00,
2013-01-26 18:48:00,21.5,12.0,30.23,SSE,160,1.0,3.0,67,0.00,,,0.00,weatherlink.com 1.10,2013-01-27 00:48:00,
2013-01-26 19:03:00,21.5,12.0,30.23,SE,144,1.0,4.0,68,0.00,,,0.00,weatherlink.com 1.10,2013-01-27 01:03:00,
2013-01-26 19:18:00,21.6,13.0,30.23,SE,134,0.0,4.0,68,0.00,,,0.00,weatherlink.com 1.10,2013-01-27 01:18:00,
2013-01-26 19:33:00,21.8,13.0,30.22,SE,143,1.0,6.0,68,0.00,,,0.00,weatherlink.com 1.10,2013-01-27 01:33:00,
2013-01-26 19:48:00,22.0,13.0,30.22,SE,139,1.0,6.0,67,0.00,,,0.00,weatherlink.com 1.10,2013-01-27 01:48:00,
2013-01-26 20:03:00,22.2,13.0,30.23,South,180,1.0,2.0,67,0.00,,,0.00,weatherlink.com 1.10,2013-01-27 02:03:00,
2013-01-26 20:18:00,22.5,13.0,30.21,SE,146,0.0,4.0,67,0.00,,,0.00,weatherlink.com 1.10,2013-01-27 02:18:00,
2013-01-26 20:33:00,22.7,13.0,30.21,SSE,156,1.0,4.0,67,0.00,,,0.00,weatherlink.com 1.10,2013-01-27 02:33:00,
2013-01-26 20:48:00,22.9,13.0,30.22,SSW,208,0.0,5.0,67,0.00,,,0.00,weatherlink.com 1.10,2013-01-27 02:48:00,
2013-01-26 21:04:00,23.2,13.0,30.21,SSE,149,1.0,3.0,66,0.00,,,0.00,weatherlink.com 1.10,2013-01-27 03:04:00,
2013-01-26 21:18:00,23.4,14.0,30.21,SSE,152,1.0,5.0,66,0.00,,,0.00,weatherlink.com 1.10,2013-01-27 03:18:00,
2013-01-26 21:34:00,23.5,13.0,30.21,SSE,156,1.0,7.0,65,0.00,,,0.00,weatherlink.com 1.10,2013-01-27 03:34:00,
2013-01-26 21:49:00,23.5,13.0,30.20,South,180,1.0,6.0,65,0.00,,,0.00,weatherlink.com 1.10,2013-01-27 03:49:00,
2013-01-26 22:04:00,23.6,14.0,30.20,SE,127,1.0,3.0,66,0.00,,,0.00,weatherlink.com 1.10,2013-01-27 04:04:00,
2013-01-26 22:19:00,23.7,14.0,30.19,SSE,148,0.0,5.0,66,0.00,,,0.00,weatherlink.com 1.10,2013-01-27 04:19:00,
2013-01-26 22:34:00,23.7,14.0,30.19,SSE,150,0.0,5.0,66,0.00,,,0.00,weatherlink.com 1.10,2013-01-27 04:34:00,
2013-01-26 22:49:00,23.7,14.0,30.19,SE,143,1.0,4.0,66,0.00,,,0.00,weatherlink.com 1.10,2013-01-27 04:49:00,
2013-01-26 23:04:00,23.7,14.0,30.19,SSE,153,3.0,4.0,66,0.00,,,0.00,weatherlink.com 1.10,2013-01-27 05:04:00,
2013-01-26 23:19:00,23.7,14.0,30.19,SSE,155,1.0,6.0,67,0.00,,,0.00,weatherlink.com 1.10,2013-01-27 05:19:00,
2013-01-26 23:34:00,23.7,14.0,30.18,SE,135,0.0,5.0,67,0.00,,,0.00,weatherlink.com 1.10,2013-01-27 05:34:00,
2013-01-26 23:49:00,23.6,14.0,30.18,SW,229,6.0,8.0,67,0.00,,,0.00,weatherlink.com 1.10,2013-01-27 05:49:00,